Theta_e
314 312 314 311 309 309 309 309 309 308 308 309 310 310 311 311 311 311 314 313 319 319 316 314 315 315 315 316 317 318 319 320 320 321 322 324 323 322 322 321 321 322 321 328 337
315 311 312 311 309 308 309 309 308 308 307 307 308 309 309 310 311 312 310 310 317 317 313 314 317 315 317 316 317 319 319 319 321 322 323 323 322 321 321 320 320 321 321 322 326
316 315 311 311 310 309 309 308 308 308 308 307 307 308 309 310 315 319 320 316 314 315 315 315 317 317 317 317 317 318 320 320 320 321 321 321 320 320 321 320 320 320 320 320 320
314 315 313 309 309 309 309 308 307 308 308 307 307 308 309 311 321 322 317 314 316 317 317 315 316 318 319 317 317 318 319 319 319 319 320 319 319 319 319 320 320 320 320 320 320
313 314 311 308 308 309 309 308 307 306 307 307 307 307 312 317 317 318 318 318 314 314 315 315 317 317 318 318 318 318 318 318 319 319 319 318 318 318 319 320 320 319 319 319 319
313 312 310 309 308 308 307 308 307 306 306 307 307 309 313 317 316 320 320 319 316 314 316 316 317 317 317 318 318 318 318 318 318 319 319 319 318 319 319 320 319 319 319 319 319
307 308 310 311 310 309 308 307 306 307 306 306 306 313 314 318 320 319 319 321 319 318 318 316 317 317 317 318 317 318 318 319 319 318 319 319 320 320 320 320 321 321 320 320 319
308 307 306 307 308 307 306 305 305 306 306 306 309 314 316 317 320 319 320 320 319 317 317 317 316 316 316 317 317 318 319 318 319 320 318 320 320 322 321 321 321 321 320 320 320
306 305 305 305 304 304 303 302 303 305 308 313 314 314 318 320 319 320 321 321 321 319 317 316 316 316 315 316 317 319 319 319 319 321 321 320 320 322 322 322 322 322 322 322 321
304 302 301 301 301 302 303 302 305 312 314 313 315 316 316 319 321 320 320 322 321 320 317 316 315 316 316 316 317 320 320 320 320 321 321 321 321 322 323 323 323 323 323 323 322
301 301 301 301 301 301 302 307 315 316 315 319 319 318 318 321 321 320 320 322 321 319 319 317 317 317 316 317 317 320 321 321 320 321 322 322 322 322 323 323 323 323 323 323 323
299 300 300 300 300 300 308 313 311 315 315 316 318 318 320 321 321 320 320 321 322 322 319 319 318 318 318 317 317 319 319 321 321 321 323 323 322 323 323 324 323 323 323 323 323
299 299 299 300 300 304 315 315 311 313 316 315 315 315 318 319 321 322 321 321 322 322 321 321 320 319 319 319 318 319 319 320 322 321 321 321 322 323 323 323 324 324 325 324 323
300 300 300 301 304 311 309 311 312 314 316 314 316 317 316 318 320 320 321 321 322 322 322 322 322 322 320 319 319 319 319 320 321 322 321 322 322 324 323 324 324 324 325 324 324
300 300 300 300 300 305 309 311 311 313 316 316 321 319 319 318 319 320 321 320 322 322 321 322 322 322 321 320 319 320 321 321 321 321 321 320 322 322 323 324 325 327 325 324 329
301 301 302 303 307 308 311 312 312 316 314 316 319 322 321 320 319 321 320 321 320 322 322 322 321 321 321 321 320 320 321 321 321 320 321 320 321 322 324 325 325 327 326 326 331
301 301 302 303 304 307 309 312 314 315 313 315 316 320 324 323 321 321 322 324 324 323 324 323 322 322 322 321 321 321 321 320 321 322 321 321 321 322 325 326 326 327 329 330 329
301 301 303 307 309 310 310 312 315 313 314 314 314 314 321 323 322 321 323 326 323 322 323 325 323 322 322 321 321 321 322 321 323 323 322 323 324 323 326 327 326 327 328 328 327
302 305 307 309 311 311 312 315 312 312 313 313 313 314 315 319 319 322 323 326 325 324 324 325 323 322 322 321 321 321 321 322 324 326 331 328 324 325 325 328 328 326 326 326 326
303 308 312 313 313 312 313 314 312 312 313 313 313 312 315 320 318 322 325 324 325 323 323 323 324 323 321 321 321 322 322 323 324 329 331 330 328 326 326 329 328 328 327 326 325
307 309 313 314 313 312 312 311 311 311 313 315 316 312 312 315 319 318 318 324 324 322 322 322 324 325 323 322 321 322 323 324 327 327 332 332 331 329 329 328 329 327 326 326 324
306 310 312 313 313 312 313 312 313 314 314 315 316 312 312 317 317 320 319 319 319 323 325 323 327 327 324 322 322 321 323 325 331 329 329 329 332 328 328 328 327 326 326 324 323
305 307 309 311 315 315 314 313 313 315 314 316 316 315 316 314 317 316 320 318 320 322 327 326 326 332 328 325 323 321 322 325 329 331 330 333 330 325 326 327 325 325 325 324 322
306 310 310 312 312 314 312 312 314 313 315 314 315 316 317 317 318 317 321 317 321 322 322 326 326 328 329 326 325 324 323 325 327 332 330 328 326 325 325 327 326 324 321 323 321
305 308 309 312 312 311 312 313 315 315 314 312 314 315 317 319 318 320 321 321 322 321 321 327 327 328 327 324 327 327 325 325 326 328 329 326 325 326 326 326 325 326 324 322 321
306 306 304 306 310 311 312 313 315 315 314 314 311 311 314 314 315 320 321 320 322 322 322 324 328 326 328 324 325 326 324 326 326 327 325 324 324 323 324 324 323 323 322 321 320
302 303 305 307 310 311 312 313 313 314 314 313 314 313 315 317 318 319 319 320 322 322 323 325 324 325 328 326 325 326 324 324 326 325 324 326 325 325 325 324 323 322 321 321 320
Wind_Speed
18 17 15 17 18 17 17 17 18 19 19 21 21 23 23 24 26 26 31 26 12 18 16 10 13 18 18 20 22 23 15 17 23 22 16 24 6 6 8 2 11 6 13 2 7
20 17 16 17 18 18 18 18 19 19 20 20 21 21 23 23 27 36 31 24 24 20 15 18 19 19 24 20 25 20 15 24 21 20 18 16 2 3 6 9 15 13 17 16 5
20 20 19 18 18 19 19 19 20 20 21 22 22 21 22 20 25 11 8 13 25 24 23 19 19 22 26 26 27 27 21 19 23 29 17 13 16 4 11 12 14 20 22 21 18
23 21 20 20 20 20 19 20 21 21 22 23 23 24 24 15 7 2 2 1 13 22 21 22 25 26 22 22 28 23 27 27 30 32 7 10 17 17 16 19 16 18 14 17 18
21 21 21 21 21 20 21 21 22 22 23 23 22 25 19 13 29 16 22 20 11 21 26 27 28 28 23 22 26 24 23 27 27 29 25 11 18 19 21 18 18 18 18 17 21
21 22 22 22 22 23 24 24 24 24 25 24 24 18 12 19 15 14 15 16 15 21 25 26 25 27 24 25 23 25 25 25 29 29 21 21 20 21 22 21 20 21 19 20 21
24 24 23 24 24 25 26 26 25 26 27 25 24 11 17 34 8 9 14 16 16 20 23 25 26 23 25 19 27 28 18 22 21 27 22 21 21 22 24 19 22 21 20 19 21
26 26 24 25 26 27 28 28 27 27 28 25 16 8 16 17 11 22 17 19 19 19 22 20 23 25 22 21 20 22 22 20 21 20 27 21 20 18 28 22 20 15 15 18 18
27 27 27 26 27 28 30 28 26 27 23 14 7 11 16 11 27 25 22 23 22 21 20 19 22 25 19 19 17 20 17 25 23 23 22 24 21 21 13 18 15 15 16 17 17
30 29 30 30 28 28 30 29 19 19 8 4 10 7 22 20 15 23 25 23 25 22 23 20 18 15 16 17 19 19 21 21 21 21 26 22 14 23 17 17 14 15 16 15 19
28 28 28 28 27 25 29 24 6 5 14 15 13 17 21 10 18 21 28 25 26 27 21 25 15 20 27 25 22 21 21 22 17 19 14 15 18 18 16 17 17 16 16 15 17
28 27 27 26 27 23 22 9 14 21 27 30 38 41 41 31 16 19 28 28 29 25 24 19 23 25 23 23 24 23 23 21 16 17 8 14 16 18 16 11 16 15 15 15 15
27 27 28 27 25 19 10 17 21 19 21 39 37 40 44 39 37 26 34 37 25 28 27 26 23 24 24 23 24 22 23 21 15 18 13 10 13 12 18 14 15 15 4 6 12
27 28 29 28 20 9 21 13 13 15 10 18 23 26 47 46 34 37 37 38 23 28 28 25 26 27 26 26 23 22 22 19 14 12 14 19 15 15 16 15 12 12 12 14 17
28 28 27 23 24 22 16 15 13 9 8 13 11 8 12 46 27 39 37 37 30 25 23 27 25 28 24 24 26 22 18 20 16 17 11 18 13 14 18 18 18 11 13 17 20
27 28 28 25 19 24 14 16 12 8 15 13 12 8 11 24 43 20 41 39 36 28 24 27 30 23 27 17 25 19 18 17 19 14 16 19 15 14 11 23 21 17 19 17 23
30 29 31 25 29 16 17 13 10 12 8 18 22 15 11 17 25 33 30 28 24 24 25 24 29 27 21 17 19 18 17 11 12 13 14 21 20 13 3 4 19 17 19 22 21
34 32 28 24 19 13 11 10 20 14 25 23 32 25 7 16 14 28 26 26 30 28 18 20 22 27 18 22 18 21 19 12 20 14 17 21 21 19 17 20 22 21 20 20 20
34 26 26 18 20 17 19 10 17 22 25 27 27 25 23 3 8 13 24 29 29 30 26 20 24 24 19 18 20 20 20 19 17 3 2 6 15 17 16 19 22 21 21 23 24
33 29 18 10 9 13 8 17 26 29 28 28 31 26 19 6 8 9 6 14 31 29 27 21 12 17 25 20 22 24 19 18 14 6 11 8 4 6 15 19 20 17 21 22 22
22 14 6 5 5 7 9 18 25 34 21 17 32 28 21 17 8 3 6 15 17 22 25 22 7 10 10 23 19 16 12 4 7 7 5 6 2 12 7 14 17 19 22 22 21
15 7 6 8 5 9 12 17 18 20 29 19 25 24 21 8 11 6 10 7 28 13 21 24 7 1 18 13 22 21 17 14 4 7 7 5 4 12 6 7 4 15 28 22 20
13 29 18 19 4 9 15 18 29 10 6 10 17 17 19 13 11 16 7 3 14 5 11 11 12 11 14 8 14 21 22 18 18 8 16 7 6 6 9 15 16 17 7 17 17
10 6 12 6 13 10 10 13 19 18 7 10 14 13 12 13 16 12 7 3 6 13 21 9 4 10 7 9 2 13 17 12 10 4 2 8 10 8 6 13 13 21 27 21 13
7 7 19 8 14 19 18 18 19 8 4 8 9 7 11 9 12 17 6 5 9 13 8 5 6 3 7 12 4 11 11 23 20 13 12 9 3 12 11 8 4 28 24 17 18
9 7 13 22 25 21 18 15 18 18 7 5 2 15 12 5 8 7 3 9 6 12 10 2 4 6 2 15 14 7 8 12 18 27 4 8 4 9 7 4 5 8 17 14 17
19 20 13 9 11 14 14 20 21 13 2 6 9 12 13 10 2 8 10 8 3 5 12 7 6 3 2 2 13 3 8 8 19 8 10 11 9 21 15 14 11 12 13 13 16
Wind_Direction
330 322 315 315 312 311 309 307 304 301 299 300 300 301 301 300 294 285 269 251 219 247 240 229 221 218 225 234 230 229 247 248 247 256 256 264 198 139 218 296 278 240 222 81 119
331 331 322 316 315 312 309 308 306 304 303 301 298 296 296 303 301 287 276 253 235 234 228 220 219 215 220 224 227 228 232 243 255 257 261 301 125 197 162 223 251 241 235 241 182
324 325 320 314 311 309 307 305 303 301 303 304 302 301 301 310 312 278 279 233 231 231 232 226 227 216 222 222 222 225 240 248 242 261 284 296 310 180 245 217 231 229 233 241 239
318 318 316 314 312 310 306 306 303 302 303 305 305 306 303 301 267 219 302 205 202 218 221 215 225 221 223 226 227 231 232 243 264 274 267 280 282 280 265 247 256 250 251 249 233
321 318 317 314 313 311 308 304 302 302 301 301 298 304 304 246 246 239 280 279 247 211 206 205 217 220 223 229 230 232 238 239 252 259 270 245 260 258 257 259 250 252 255 245 247
327 322 318 315 313 312 310 307 304 304 301 300 301 300 270 257 273 265 232 255 232 206 206 208 216 219 233 232 233 234 237 245 244 260 249 251 252 249 250 249 251 248 248 243 236
328 324 318 315 313 312 310 308 306 303 301 297 295 273 251 247 236 231 221 234 206 200 204 211 217 222 228 243 241 253 246 245 237 247 257 247 245 242 251 236 247 221 230 240 229
323 322 321 316 313 312 311 309 309 304 300 296 280 235 251 263 251 217 220 220 209 212 211 215 219 232 240 241 254 243 243 248 233 231 238 240 254 249 234 221 231 224 220 219 223
321 319 318 316 315 316 314 315 310 301 299 294 252 213 265 276 220 223 214 212 207 207 213 218 218 231 229 241 234 232 241 234 245 246 215 220 239 252 208 204 213 219 213 218 210
319 320 320 320 322 321 315 314 306 289 295 282 235 221 257 240 227 210 207 207 202 201 208 218 211 224 229 221 222 221 228 241 243 233 236 214 216 250 181 191 211 227 214 207 202
317 317 316 315 316 321 312 323 258 226 218 218 227 220 274 259 226 202 197 200 199 205 202 201 209 211 218 225 229 246 239 227 236 237 198 217 220 240 243 198 227 207 230 220 202
317 315 313 312 312 315 299 258 273 305 297 257 252 249 257 264 238 214 194 199 198 206 202 201 219 219 218 226 232 235 251 246 221 250 245 202 229 241 242 247 199 217 233 225 204
318 314 313 312 314 315 308 280 299 296 279 275 255 246 233 241 242 208 196 205 199 205 205 216 211 222 227 222 229 229 238 247 251 220 233 244 232 262 274 239 220 218 225 247 244
315 315 316 316 321 309 286 291 306 318 282 277 243 243 235 227 231 227 199 203 220 213 215 218 230 218 215 233 219 229 226 244 239 261 242 216 243 218 234 260 242 185 213 229 244
314 311 311 313 299 295 277 301 307 287 277 303 354 155 214 209 217 213 214 201 215 206 213 221 218 231 220 213 226 230 224 221 232 229 270 279 228 250 205 216 240 180 181 211 116
315 313 314 306 283 286 305 295 280 236 247 269 329 271 221 215 214 215 207 201 214 234 217 229 219 221 230 210 224 214 229 226 216 220 233 239 261 252 254 199 211 172 177 158 117
317 307 302 289 272 270 288 284 241 234 264 249 246 239 332 236 211 224 191 197 211 218 234 217 228 217 223 204 223 200 217 220 223 221 236 219 224 245 321 96 181 153 148 127 124
320 311 305 286 270 272 248 256 242 265 246 265 293 290 306 281 316 224 205 198 206 218 222 223 215 218 203 215 201 202 205 212 215 224 230 221 222 221 181 94 40 116 134 133 148
321 318 297 280 260 225 224 240 248 259 270 284 291 286 286 23 213 299 266 206 197 214 219 221 223 201 209 201 219 195 212 225 242 357 324 253 237 212 166 129 150 148 158 163 158
323 314 301 255 204 199 222 250 267 276 283 282 283 287 260 280 350 301 288 270 193 199 227 233 231 219 207 190 212 228 209 217 232 192 249 237 263 180 174 146 157 170 152 159 144
328 304 256 186 181 197 232 254 260 265 309 302 296 270 268 263 158 213 290 263 279 199 214 236 223 238 238 199 199 208 222 200 299 226 238 211 240 299 6 350 157 155 163 155 157
325 290 225 178 249 233 253 275 291 285 293 294 283 264 264 253 273 265 215 264 316 333 317 220 159 145 236 192 200 212 195 175 220 223 252 248 152 213 139 286 124 347 160 158 164
302 287 284 253 273 292 338 324 312 325 260 298 297 306 316 254 254 251 208 249 271 301 301 218 202 178 212 245 255 225 204 206 209 167 213 218 126 188 221 181 177 168 237 159 150
295 293 316 252 263 273 310 294 294 330 338 339 302 292 290 264 269 260 216 215 236 241 308 328 255 181 211 206 247 239 214 208 204 248 198 274 151 190 244 162 171 156 144 194 152
284 276 325 308 317 314 309 298 315 339 275 1 331 290 331 271 267 264 191 187 192 234 296 334 197 7 173 209 135 278 211 198 216 205 194 217 169 225 179 126 132 170 169 154 158
291 349 321 298 294 307 304 314 313 335 318 354 336 292 312 232 261 314 301 189 206 181 226 180 120 14 62 164 200 232 336 263 211 226 139 166 162 317 159 54 141 175 164 166 150
317 319 310 300 295 297 308 311 319 356 2 284 337 322 311 309 57 18 12 6 315 211 193 177 172 122 300 338 126 104 208 296 254 220 207 198 175 182 173 171 172 220 174 110 92